Home   Weather   Stellenbosch   Past weeks

Flag for South Africa Past Weather in Stellenbosch, South Africa — Yesterday and Last 2 Weeks

Now
59 °F

Passing clouds.


Feels Like: 57 °F
Forecast: 46 / 71 °F
Wind: 9 mph from South

Location: Cape Town International Airport

Current Time: Sep 30, 2016 at 8:46:02 AM

Latest Report: Sep 30, 2016 at 8:00 AM


Visibility: N/A

Pressure: 30.21 "Hg

Humidity: 63%

Dew Point: 46 °F

Location of StellenboschLocation

Past Weather in Stellenbosch — Graph

°F

Stellenbosch Temperature Yesterday

Maximum temperature yesterday: 63 °F (at 1:00 PM)
Minimum temperature yesterday: 50 °F (at 6:00 AM)
Average temperature yesterday: 57 °F

High & Low Weather Summary for the Past Weeks

 TemperatureHumidityPressure
High79 °F (Sep 19, 1:00 PM)94% (Sep 15, 7:00 AM)30.45 "Hg (Sep 15, 7:00 AM)
Low39 °F (Sep 18, 4:00 AM)28% (Sep 19, 1:00 PM)29.65 "Hg (Sep 26, 3:00 AM)
Average58 °F69%30.13 "Hg
* Reported Sep 15 7:00 AM — Sep 30 7:00 AM, Stellenbosch, Weather by CustomWeather, © 2016

Note: Actual official high and low records may vary slightly from our data, if they occured in-between our weather recording intervals... More about our weather records

Advertising

Stellenbosch Weather History for the Previous 24 Hours

Scroll right to see more
 ConditionsComfort  
Time TempWeatherWind HumidityBarometerVisibility
7:00 AM
Fri, Sep 30
54 °FPassing clouds.8 mph77%30.21 "HgN/A
6:00 AM54 °FPassing clouds.9 mph77%30.18 "HgN/A
5:00 AM54 °FPassing clouds.5 mph77%30.18 "HgN/A
4:00 AM54 °FClear.6 mph72%30.18 "Hg10 mi
3:00 AM54 °FClear.3 mph72%30.18 "Hg10 mi
2:00 AM52 °FPassing clouds.6 mph77%30.21 "HgN/A
1:00 AM55 °FClear.8 mph67%30.21 "Hg10 mi
12:00 AM55 °FPassing clouds.7 mph72%30.24 "HgN/A
11:00 PM
Thu, Sep 29
50 °FPassing clouds.5 mph82%30.24 "HgN/A
10:00 PM54 °FPassing clouds.7 mph82%30.24 "HgN/A
9:00 PM55 °FPassing clouds.7 mph77%30.27 "HgN/A
8:00 PM57 °FPassing clouds.9 mph67%30.24 "HgN/A
7:00 PM57 °FPassing clouds.10 mph72%30.24 "HgN/A
6:00 PM61 °FPassing clouds.12 mph59%30.24 "HgN/A
5:00 PM61 °FScattered clouds.12 mph59%30.24 "HgN/A
4:00 PM63 °FPartly sunny.9 mph56%30.21 "HgN/A
3:00 PM63 °FPartly sunny.7 mph56%30.24 "HgN/A
2:00 PM63 °FPartly sunny.5 mph52%30.24 "HgN/A
1:00 PM63 °FPartly sunny.7 mph59%30.27 "HgN/A
12:00 PM61 °FPartly sunny.8 mph59%30.27 "HgN/A
11:00 AM61 °FPartly sunny.5 mph59%30.30 "HgN/A
10:00 AM59 °FPartly sunny.6 mph68%30.30 "HgN/A
9:00 AM57 °FPartly sunny.7 mph67%30.30 "HgN/A
8:00 AM54 °FPartly sunny.9 mph72%30.30 "HgN/A
Weather by CustomWeather, © 2016

See weather overviewHow to use our weather pages